Regional Weather Roundup
Issued by NWS Cleveland, OH

Home | Current Version | Previous Version | Text Only | Print | Product List | Glossary On
Versions: 1 2 3 4 5 6 7 8 9 10 11 12 13 14 15 16 17 18 19 20 21 22 23 24 25 26 27 28 29 30 31 32 33 34 35 36 37 38 39 40 41 42 43 44 45 46 47 48 49 50
000
ASUS41 KCLE 181312
RWRCLE
OHIO REGIONAL WEATHER ROUNDUP
NATIONAL WEATHER SERVICE WILMINGTON, OH
900 AM EDT FRI AUG 18 2017

NOTE: "FAIR" INDICATES FEW OR NO CLOUDS BELOW 12,000 FEET WITH NO
SIGNIFICANT WEATHER AND/OR OBSTRUCTIONS TO VISIBILITY.

OHZ001>008-015>018-024>027-034-035-043-044-181400-
   NORTHWEST OHIO

CITY           SKY/WX    TMP DP  RH WIND       PRES   REMARKS
DEFIANCE       FAIR      70  65  84 W8        29.82R
FINDLAY        FAIR      73  65  75 SW9       29.82R
TOLEDO EXPRESS FAIR      71  67  87 W17       29.79R
TOLEDO EXEC    FAIR      72  68  87 SW12      29.80R
LIMA           FAIR      71  67  87 W12       29.85R
$$

OHZ009>014-019>023-028>033-038-089-181400-
   NORTHEAST OHIO

CITY           SKY/WX    TMP DP  RH WIND       PRES   REMARKS
CLE-HOPKINS    FAIR      76  69  79 SW13      29.82S
CLE-LAKEFRONT  FAIR      77  67  71 SW14      29.78S
CUY CO. ARPT   NOT AVBL
LORAIN-ELYRIA  FAIR      73  64  73 W10       29.82R
ASHTABULA      FAIR      74  72  93 SW12      29.81S
AKRON-CANTON   PTSUNNY   76  69  79 W9        29.84R
WOOSTER        FAIR      74  69  85 W9        29.84S
MANSFIELD      FAIR      74  68  81 SW9       29.85S
YOUNGSTOWN     CLOUDY    75  71  87 SW9       29.83S
$$

OHZ042-051>053-060>062-070>072-077>081-181400-
  SOUTHWEST OHIO

CITY           SKY/WX    TMP DP  RH WIND       PRES   REMARKS
CINC-COVINGTON FAIR      74  73  97 W8        29.90R
CINC-LUNKEN    FAIR      77  73  87 W10       29.89R
HAMILTON       FAIR      75  72  90 W7G17     29.90R
DAYTON         FAIR      72  68  87 W10       29.89R
WRIGHT-PAT AFB MOSUNNY   73  70  89 W8        29.88R
DAYTON GENERAL FAIR      73  68  84 W10       29.89R
WILMINGTON     PTSUNNY   74  73  97 W9        29.89R
$$

OHZ036-037-039>041-045>050-054>059-063>069-073>076-082>088-181400-
  CENTRAL AND SOUTHEAST OHIO

CITY           SKY/WX    TMP DP  RH WIND       PRES   REMARKS
COLUMBUS       FAIR      76  72  87 W8        29.85R
OSU AIRPORT    FAIR      74  72  93 W15       29.86R
BOLTON FIELD   PTSUNNY   73  72  94 W5        29.87R
RICKENBACK AFB PTSUNNY   74  73  96 W8        29.85S
NEWARK         FAIR      76  72  87 W7        29.85R
MARION         FAIR      73  67  81 W12       29.85S
LANCASTER      FAIR      76  71  85 W8        29.86S
ZANESVILLE     CLOUDY    75  72  90 SW8       29.85S
NEW PHILLY     FAIR      76  72  87 VRB5      29.84S
$$




USA.gov is the U.S. government's official web portal to all federal, state and local government web resources and services.